Regional Weather Roundup
Issued by NWS Goodland, KS

Home | Current Version | Previous Version | Graphics & Text | Print | Product List | Glossary On
Versions: 1 2 3 4 5 6 7 8 9 10 11 12 13 14 15 16 17 18 19 20 21 22 23 24 25 26 27 28 29 30 31 32 33 34 35 36 37 38 39 40 41 42 43 44 45 46 47 48 49 50
000
ASUS43 KGLD 290659
RWRGLD

GOODLAND FORECAST AREA HOURLY WEATHER ROUNDUP
NATIONAL WEATHER SERVICE GOODLAND KS
100 AM MDT FRI APR 29 2016

...OFFICIAL OBSERVATIONS...

CITY           SKY/WX    TMP DP  RH WIND       PRES   REMARKS
GOODLAND KS    CLOUDY    41  39  93 E12       30.06R
HILL CITY KS   CLOUDY    47  43  86 NE5       30.09F
IMPERIAL NEB   CLOUDY    42  38  85 E5        30.09F
MCCOOK NEB     CLOUDY    44  40  85 NE6       30.10F
AKRON CO       CLOUDY    37  34  89 E10       30.05F
BURLINGTON CO  LGT RAIN  41  37  86 NE14      30.06R
LIMON CO       LGT SNOW  34  33  96 NE12      30.03F FOG
$$

...UNOFFICIAL OBSERVATIONS...

CITY           SKY/WX    TMP DP  RH WIND       PRES   REMARKS
COLBY KS       CLOUDY    43  43 100 NE12      30.07F
GOVE KS          N/A     46  32  58 MISG        N/A
LENORA KS        N/A     45  32  60 MISG        N/A
NORTON KS      CLOUDY    45  39  81 NE9       30.09S
SHARON SPRINGS   N/A     43  40  91 E13G20      N/A
KIT CARSON CO    N/A     40  36  86 MISG        N/A
YUMA CO          N/A     39  35  87 E6          N/A
$$




USA.gov is the U.S. government's official web portal to all federal, state and local government web resources and services.